Flag for Norway Weather past 2 weeks in Ørsta, Norway

Now
81 °F

Sunny.


Feels Like: 80 °F
Forecast: 56 / 67 °F
Wind: 6 mph from North

Location: Orsta-Volda / Hovden

Current Time: Jul 2, 2015 at 12:34:38 PM

Latest Report: Jul 2, 2015 at 11:50 AM


Visibility: 10 mi

Pressure: 30.12 "Hg

Humidity: 34%

Dew point: 50 °F

Location of ØrstaLocation

Historic Weather in Ørsta — Graph

°F

Ørsta temperature yesterday

Maximum temperature yesterday: 75 °F (at 7:50 PM)
Minimum temperature yesterday: 59 °F (at 9:50 AM)
Average temperature yesterday: 68 °F

Past Weeks' High & Low Weather Summary

 TemperatureHumidityPressure
High75 °F (Jul 1, 7:50 PM)100% (Jun 18, 5:50 AM)30.18 "Hg (Jun 18, 5:50 AM)
Low45 °F (Jun 25, 5:50 AM)39% (Jun 30, 8:50 PM)29.65 "Hg (Jun 17, 5:50 PM)
Average56 °F74%29.92 "Hg
* Reported Jun 17 10:50 AM — Jul 2 10:50 AM, Ørsta, Weather by CustomWeather, © 2015

Note: Actual official high and low records may vary slightly from our data, if they occured in-between our weather recording intervals... More about our weather records

Advertising

Ørsta weather history for previous 24 hours

 ConditionsComfort  
Time TempWeatherWind HumidityBarometerVisibility
10:50 AM
Thu, Jul 2
75 °FSunny.2 mph47%30.12 "Hg10 mi
9:50 AM66 °FSunny.3 mph68%30.15 "Hg10 mi
8:50 AM66 °FSunny.5 mph73%30.12 "Hg10 mi
7:50 AM64 °FSunny.1 mph73%30.12 "Hg10 mi
6:50 AM59 °FSunny.1 mph88%30.15 "Hg10 mi
5:50 AM57 °FSunny.2 mph88%30.15 "Hg10 mi
9:50 PM
Wed, Jul 1
72 °FSunny.6 mph50%30.12 "Hg10 mi
8:50 PM73 °FPassing clouds.10 mph44%30.15 "HgN/A
7:50 PM75 °FPassing clouds.7 mph41%30.15 "HgN/A
6:50 PM73 °FScattered clouds.9 mph47%30.15 "HgN/A
4:50 PM72 °FScattered clouds.9 mph47%30.18 "HgN/A
3:50 PM72 °FScattered clouds.9 mph47%30.18 "HgN/A
3:20 PM72 °FScattered clouds.14 mph47%30.18 "HgN/A
2:50 PM70 °FPartly sunny.6 mph50%30.18 "HgN/A
1:50 PM70 °FScattered clouds.6 mph53%30.18 "HgN/A
12:50 PM68 °FScattered clouds.6 mph56%30.15 "HgN/A
Weather by CustomWeather, © 2015

See weather overviewHow to use our weather pages